Terminal Aerodrome Forecast
Issued by NWS Melbourne, FL

Home | Current Version | Previous Version | Text Only | Print | Product List | Glossary On
Versions: 1 2 3 4 5 6 7 8 9 10 11 12
000
FTUS42 KMLB 311700
TAFDAB
TAF
KDAB 311733Z 3118/0118 06013G17KT P6SM FEW040 BKN200
     FM010000 06006KT P6SM SCT040 BKN250=

USA.gov is the U.S. government's official web portal to all federal, state and local government web resources and services.